Location: Nemiskam
(49.4820°N, 111.2775°W)
Time: 10:13:17
(UTC+00:00)

Envisat - Pass Details

Date: 28 November 2022
Orbit: 763 x 765 km, 98.2° (Epoch: 28 January)

Event Time Altitude Azimuth Distance (km) Brightness Sun altitude
Rises 00:24:11 0° 223° (SW) 3,222 7.6 -8.5°
Reaches altitude 10° 00:28:17 10° 256° (WSW) 2,304 7.1 -9.1°
Maximum altitude 00:29:56 11° 276° (W) 2,206 6.5 -9.4°
Drops below altitude 10° 00:31:35 10° 295° (WNW) 2,310 6.2 -9.6°
Sets 00:35:45 0° 328° (NNW) 3,245 6.4 -10.3°
